Year,Month,Day,Hour,Minute,Value (Times are PST for temperature in C)
2018,12,20,00,00,7.00
2018,12,20,00,01,7.00
2018,12,20,00,02,7.00
2018,12,20,00,03,7.00
2018,12,20,00,04,7.00
2018,12,20,00,05,7.00
2018,12,20,00,06,7.10
2018,12,20,00,07,7.10
2018,12,20,00,08,7.10
2018,12,20,00,09,7.00
2018,12,20,00,10,7.00
2018,12,20,00,11,7.00
2018,12,20,00,12,7.00
2018,12,20,00,13,7.00
2018,12,20,00,14,7.00
2018,12,20,00,15,7.10
2018,12,20,00,16,7.10
2018,12,20,00,17,7.10
2018,12,20,00,18,7.10
2018,12,20,00,19,7.10
2018,12,20,00,20,7.10
2018,12,20,00,21,7.10
2018,12,20,00,22,7.10
2018,12,20,00,23,7.10
2018,12,20,00,24,7.10
2018,12,20,00,25,7.10
2018,12,20,00,26,7.10
2018,12,20,00,27,7.10
2018,12,20,00,28,7.00
2018,12,20,00,29,7.00
2018,12,20,00,30,7.00
2018,12,20,00,31,7.00
2018,12,20,00,32,7.00
2018,12,20,00,33,6.90
2018,12,20,00,34,6.90
2018,12,20,00,35,6.90
2018,12,20,00,36,6.90
2018,12,20,00,37,6.90
2018,12,20,00,38,6.90
2018,12,20,00,39,6.90
2018,12,20,00,40,6.90
2018,12,20,00,41,6.90
2018,12,20,00,42,6.90
2018,12,20,00,43,6.90
2018,12,20,00,44,6.90
2018,12,20,00,45,6.90
2018,12,20,00,46,6.90
2018,12,20,00,47,6.90
2018,12,20,00,48,6.90
2018,12,20,00,49,6.90
2018,12,20,00,50,6.90
2018,12,20,00,51,6.90
2018,12,20,00,52,6.90
2018,12,20,00,53,6.90
2018,12,20,00,54,6.90
2018,12,20,00,55,6.90
2018,12,20,00,56,6.90
2018,12,20,00,57,6.90
2018,12,20,00,58,6.90
2018,12,20,00,59,6.90
2018,12,20,01,00,6.90
2018,12,20,01,01,6.90
2018,12,20,01,02,6.90
2018,12,20,01,03,6.90
2018,12,20,01,04,6.90
2018,12,20,01,05,7.00
2018,12,20,01,06,7.00
2018,12,20,01,07,7.10
2018,12,20,01,08,7.10
2018,12,20,01,09,7.10
2018,12,20,01,10,7.10
2018,12,20,01,11,7.00
2018,12,20,01,12,7.00
2018,12,20,01,13,7.00
2018,12,20,01,14,7.00
2018,12,20,01,15,7.00
2018,12,20,01,16,7.10
2018,12,20,01,17,7.10
2018,12,20,01,18,7.10
2018,12,20,01,19,7.10
2018,12,20,01,20,7.10
2018,12,20,01,21,7.10
2018,12,20,01,22,7.10
2018,12,20,01,23,7.00
2018,12,20,01,24,7.10
2018,12,20,01,25,7.10
2018,12,20,01,26,7.00
2018,12,20,01,27,7.00
2018,12,20,01,28,7.00
2018,12,20,01,29,7.00
2018,12,20,01,30,7.00
2018,12,20,01,31,6.90
2018,12,20,01,32,7.00
2018,12,20,01,33,6.90
2018,12,20,01,34,6.90
2018,12,20,01,35,6.90
2018,12,20,01,36,6.90
2018,12,20,01,37,6.90
2018,12,20,01,38,6.90
2018,12,20,01,39,6.90
2018,12,20,01,40,6.90
2018,12,20,01,41,6.90
2018,12,20,01,42,6.90
2018,12,20,01,43,6.90
2018,12,20,01,44,6.90
2018,12,20,01,45,6.90
2018,12,20,01,46,6.90
2018,12,20,01,47,6.90
2018,12,20,01,48,6.90
2018,12,20,01,49,6.90
2018,12,20,01,50,6.90
2018,12,20,01,51,6.90
2018,12,20,01,52,6.90
2018,12,20,01,53,6.90
2018,12,20,01,54,6.90
2018,12,20,01,55,6.90
2018,12,20,01,56,7.00
2018,12,20,01,57,7.00
2018,12,20,01,58,7.00
2018,12,20,01,59,7.00
2018,12,20,02,00,7.00
2018,12,20,02,01,7.00
2018,12,20,02,02,7.00
2018,12,20,02,03,7.10
2018,12,20,02,04,7.00
2018,12,20,02,05,7.10
2018,12,20,02,06,7.10
2018,12,20,02,07,7.10
2018,12,20,02,08,7.10
2018,12,20,02,09,7.10
2018,12,20,02,10,7.10
2018,12,20,02,11,7.10
2018,12,20,02,12,7.10
2018,12,20,02,13,7.10
2018,12,20,02,14,7.10
2018,12,20,02,15,7.10
2018,12,20,02,16,7.10
2018,12,20,02,17,7.10
2018,12,20,02,18,7.10
2018,12,20,02,19,7.10
2018,12,20,02,20,7.10
2018,12,20,02,21,7.10
2018,12,20,02,22,7.10
2018,12,20,02,23,7.10
2018,12,20,02,24,7.10
2018,12,20,02,25,7.10
2018,12,20,02,26,7.10
2018,12,20,02,27,7.10
2018,12,20,02,28,7.10
2018,12,20,02,29,7.10
2018,12,20,02,30,7.10
2018,12,20,02,31,7.10
2018,12,20,02,32,7.10
2018,12,20,02,33,7.10
2018,12,20,02,34,7.00
2018,12,20,02,35,7.00
2018,12,20,02,36,7.00
2018,12,20,02,37,7.00
2018,12,20,02,38,7.00
2018,12,20,02,39,7.00
2018,12,20,02,40,7.00
2018,12,20,02,41,7.00
2018,12,20,02,42,7.00
2018,12,20,02,43,7.00
2018,12,20,02,44,7.00
2018,12,20,02,45,7.00
2018,12,20,02,46,7.00
2018,12,20,02,47,7.00
2018,12,20,02,48,7.00
2018,12,20,02,49,7.00
2018,12,20,02,50,7.00
2018,12,20,02,51,7.00
2018,12,20,02,52,7.00
2018,12,20,02,53,7.00
2018,12,20,02,54,7.00
2018,12,20,02,55,7.00
2018,12,20,02,56,7.10
2018,12,20,02,57,7.10
2018,12,20,02,58,7.10
2018,12,20,02,59,7.10
2018,12,20,03,00,7.10
2018,12,20,03,01,7.10
2018,12,20,03,02,7.10
2018,12,20,03,03,7.10
2018,12,20,03,04,7.10
2018,12,20,03,05,7.10
2018,12,20,03,06,7.10
2018,12,20,03,07,7.10
2018,12,20,03,08,7.10
2018,12,20,03,09,7.10
2018,12,20,03,10,7.10
2018,12,20,03,11,7.10
2018,12,20,03,12,7.10
2018,12,20,03,13,7.10
2018,12,20,03,14,7.10
2018,12,20,03,15,7.10
2018,12,20,03,16,7.10
2018,12,20,03,17,7.10
2018,12,20,03,18,7.10
2018,12,20,03,19,7.10
2018,12,20,03,20,7.10
2018,12,20,03,21,7.10
2018,12,20,03,22,7.10
2018,12,20,03,23,7.10
2018,12,20,03,24,7.20
2018,12,20,03,25,7.20
2018,12,20,03,26,7.20
2018,12,20,03,27,7.20
2018,12,20,03,28,7.20
2018,12,20,03,29,7.30
2018,12,20,03,30,7.40
2018,12,20,03,31,7.50
2018,12,20,03,32,7.60
2018,12,20,03,33,7.70
2018,12,20,03,34,7.60
2018,12,20,03,35,7.60
2018,12,20,03,36,7.60
2018,12,20,03,37,7.60
2018,12,20,03,38,7.60
2018,12,20,03,39,7.50
2018,12,20,03,40,7.50
2018,12,20,03,41,7.60
2018,12,20,03,42,7.60
2018,12,20,03,43,7.70
2018,12,20,03,44,7.60
2018,12,20,03,45,7.60
2018,12,20,03,46,7.70
2018,12,20,03,47,7.70
2018,12,20,03,48,7.70
2018,12,20,03,49,7.70
2018,12,20,03,50,7.70
2018,12,20,03,51,7.80
2018,12,20,03,52,7.90
2018,12,20,03,53,8.00
2018,12,20,03,54,8.10
2018,12,20,03,55,8.20
2018,12,20,03,56,8.30
2018,12,20,03,57,8.40
2018,12,20,03,58,8.40
2018,12,20,03,59,8.40
2018,12,20,04,00,8.30
2018,12,20,04,01,8.20
2018,12,20,04,02,8.20
2018,12,20,04,03,8.10
2018,12,20,04,04,8.10
2018,12,20,04,05,8.10
2018,12,20,04,06,8.10
2018,12,20,04,07,8.10
2018,12,20,04,08,8.10
2018,12,20,04,09,8.10
2018,12,20,04,10,8.10
2018,12,20,04,11,8.10
2018,12,20,04,12,8.30
2018,12,20,04,13,8.30
2018,12,20,04,14,8.30
2018,12,20,04,15,8.30
2018,12,20,04,16,8.20
2018,12,20,04,17,8.20
2018,12,20,04,18,8.10
2018,12,20,04,19,8.10
2018,12,20,04,20,8.10
2018,12,20,04,21,8.10
2018,12,20,04,22,8.10
2018,12,20,04,23,8.30
2018,12,20,04,24,8.40
2018,12,20,04,25,8.40
2018,12,20,04,26,8.40
2018,12,20,04,27,8.40
2018,12,20,04,28,8.50
2018,12,20,04,29,8.60
2018,12,20,04,30,8.60
2018,12,20,04,31,8.70
2018,12,20,04,32,8.80
2018,12,20,04,33,8.90
2018,12,20,04,34,8.90
2018,12,20,04,35,9.00
2018,12,20,04,36,9.00
2018,12,20,04,37,9.00
2018,12,20,04,38,9.10
2018,12,20,04,39,9.10
2018,12,20,04,40,9.20
2018,12,20,04,41,9.20
2018,12,20,04,42,9.30
2018,12,20,04,43,9.40
2018,12,20,04,44,9.50
2018,12,20,04,45,9.50
2018,12,20,04,46,9.40
2018,12,20,04,47,9.50
2018,12,20,04,48,9.50
2018,12,20,04,49,9.40
2018,12,20,04,50,9.40
2018,12,20,04,51,9.40
2018,12,20,04,52,9.40
2018,12,20,04,53,9.50
2018,12,20,04,54,9.60
2018,12,20,04,55,9.80
2018,12,20,04,56,9.90
2018,12,20,04,57,10.00
2018,12,20,04,58,10.10
2018,12,20,04,59,10.20
2018,12,20,05,00,10.30
2018,12,20,05,01,10.30
2018,12,20,05,02,10.40
2018,12,20,05,03,10.50
2018,12,20,05,04,10.60
2018,12,20,05,05,10.60
2018,12,20,05,06,10.80
2018,12,20,05,07,10.90
2018,12,20,05,08,11.10
2018,12,20,05,09,11.20
2018,12,20,05,10,11.20
2018,12,20,05,11,11.30
2018,12,20,05,12,11.30
2018,12,20,05,13,11.20
2018,12,20,05,14,11.10
2018,12,20,05,15,11.10
2018,12,20,05,16,11.10
2018,12,20,05,17,11.10
2018,12,20,05,18,11.10
2018,12,20,05,19,11.20
2018,12,20,05,20,11.30
2018,12,20,05,21,11.40
2018,12,20,05,22,11.50
2018,12,20,05,23,11.60
2018,12,20,05,24,11.50
2018,12,20,05,25,11.50
2018,12,20,05,26,11.40
2018,12,20,05,27,11.30
2018,12,20,05,28,11.30
2018,12,20,05,29,11.30
2018,12,20,05,30,11.30
2018,12,20,05,31,11.30
2018,12,20,05,32,11.30
2018,12,20,05,33,11.30
2018,12,20,05,34,11.30
2018,12,20,05,35,11.40
2018,12,20,05,36,11.40
2018,12,20,05,37,11.30
2018,12,20,05,38,11.40
2018,12,20,05,39,11.40
2018,12,20,05,40,11.40
2018,12,20,05,41,11.50
2018,12,20,05,42,11.50
2018,12,20,05,43,11.50
2018,12,20,05,44,11.50
2018,12,20,05,45,11.40
2018,12,20,05,46,11.40
2018,12,20,05,47,11.40
2018,12,20,05,48,11.40
2018,12,20,05,49,11.40
2018,12,20,05,50,11.40
2018,12,20,05,51,11.40
2018,12,20,05,52,11.30
2018,12,20,05,53,11.30
2018,12,20,05,54,11.30
2018,12,20,05,55,11.30
2018,12,20,05,56,11.30
2018,12,20,05,57,11.30
2018,12,20,05,58,11.20
2018,12,20,05,59,11.30
2018,12,20,06,00,11.30
2018,12,20,06,01,11.30
2018,12,20,06,02,11.30
2018,12,20,06,03,11.30
2018,12,20,06,04,11.30
2018,12,20,06,05,11.30
2018,12,20,06,06,11.30
2018,12,20,06,07,11.40
2018,12,20,06,08,11.40
2018,12,20,06,09,11.40
2018,12,20,06,10,11.40
2018,12,20,06,11,11.40
2018,12,20,06,12,11.40
2018,12,20,06,13,11.40
2018,12,20,06,14,11.40
2018,12,20,06,15,11.40
2018,12,20,06,16,11.40
2018,12,20,06,17,11.30
2018,12,20,06,18,11.30
2018,12,20,06,19,11.30
2018,12,20,06,20,11.20
2018,12,20,06,21,11.20
2018,12,20,06,22,11.20
2018,12,20,06,23,11.10
2018,12,20,06,24,11.10
2018,12,20,06,25,11.10
2018,12,20,06,26,11.00
2018,12,20,06,27,11.00
2018,12,20,06,28,11.00
2018,12,20,06,29,11.00
2018,12,20,06,30,11.00
2018,12,20,06,31,11.00
2018,12,20,06,32,11.10
2018,12,20,06,33,11.10
2018,12,20,06,34,11.10
2018,12,20,06,35,11.10
2018,12,20,06,36,11.10
2018,12,20,06,37,11.10
2018,12,20,06,38,11.10
2018,12,20,06,39,11.10
2018,12,20,06,40,11.10
2018,12,20,06,41,11.20
2018,12,20,06,42,11.20
2018,12,20,06,43,11.20
2018,12,20,06,44,11.30
2018,12,20,06,45,11.70
2018,12,20,06,46,11.80
2018,12,20,06,47,11.80
2018,12,20,06,48,11.80
2018,12,20,06,49,11.80
2018,12,20,06,50,11.80
2018,12,20,06,51,11.80
2018,12,20,06,52,11.80
2018,12,20,06,53,11.70
2018,12,20,06,54,11.70
2018,12,20,06,55,11.60
2018,12,20,06,56,11.60
2018,12,20,06,57,11.60
2018,12,20,06,58,11.60
2018,12,20,06,59,11.60
2018,12,20,07,00,11.60
2018,12,20,07,01,11.60
2018,12,20,07,02,11.70
2018,12,20,07,03,11.90
2018,12,20,07,04,12.00
2018,12,20,07,05,12.00
2018,12,20,07,06,12.00
2018,12,20,07,07,11.90
2018,12,20,07,08,11.80
2018,12,20,07,09,11.90
2018,12,20,07,10,12.00
2018,12,20,07,11,12.00
2018,12,20,07,12,12.00
2018,12,20,07,13,12.00
2018,12,20,07,14,12.10
2018,12,20,07,15,12.10
2018,12,20,07,16,12.10
2018,12,20,07,17,12.10
2018,12,20,07,18,12.00
2018,12,20,07,19,12.00
2018,12,20,07,20,11.90
2018,12,20,07,21,11.80
2018,12,20,07,22,11.80
2018,12,20,07,23,11.80
2018,12,20,07,24,11.70
2018,12,20,07,25,11.70
2018,12,20,07,26,11.80
2018,12,20,07,27,11.90
2018,12,20,07,28,12.00
2018,12,20,07,29,12.00
2018,12,20,07,30,12.10
2018,12,20,07,31,12.10
2018,12,20,07,32,12.10
2018,12,20,07,33,12.10
2018,12,20,07,34,12.20
2018,12,20,07,35,12.40
2018,12,20,07,36,12.70
2018,12,20,07,37,12.80
2018,12,20,07,38,13.00
2018,12,20,07,39,13.10
2018,12,20,07,40,13.00
2018,12,20,07,41,12.80
2018,12,20,07,42,12.70
2018,12,20,07,43,12.70
2018,12,20,07,44,12.70
2018,12,20,07,45,12.80
2018,12,20,07,46,12.80
2018,12,20,07,47,12.80
2018,12,20,07,48,12.70
2018,12,20,07,49,12.70
2018,12,20,07,50,12.70
2018,12,20,07,51,12.70
2018,12,20,07,52,12.60
2018,12,20,07,53,12.60
2018,12,20,07,54,12.50
2018,12,20,07,55,12.50
2018,12,20,07,56,12.40
2018,12,20,07,57,12.30
2018,12,20,07,58,12.30
2018,12,20,07,59,12.30
2018,12,20,08,00,12.30
2018,12,20,08,01,12.30
2018,12,20,08,02,12.30
2018,12,20,08,03,12.40
2018,12,20,08,04,12.50
2018,12,20,08,05,12.60
2018,12,20,08,06,12.80
2018,12,20,08,07,12.80
2018,12,20,08,08,12.80
2018,12,20,08,09,12.80
2018,12,20,08,10,12.80
2018,12,20,08,11,12.80
2018,12,20,08,12,12.80
2018,12,20,08,13,12.70
2018,12,20,08,14,12.60
2018,12,20,08,15,12.60
2018,12,20,08,16,12.60
2018,12,20,08,17,12.60
2018,12,20,08,18,12.60
2018,12,20,08,19,12.70
2018,12,20,08,20,12.70
2018,12,20,08,21,12.70
2018,12,20,08,22,12.80
2018,12,20,08,23,12.90
2018,12,20,08,24,13.00
2018,12,20,08,25,13.00
2018,12,20,08,26,12.90
2018,12,20,08,27,12.90
2018,12,20,08,28,12.90
2018,12,20,08,29,12.90
2018,12,20,08,30,12.90
2018,12,20,08,31,12.80
2018,12,20,08,32,12.70
2018,12,20,08,33,12.80
2018,12,20,08,34,12.90
2018,12,20,08,35,12.80
2018,12,20,08,36,12.80
2018,12,20,08,37,12.80
2018,12,20,08,38,12.90
2018,12,20,08,39,13.00
2018,12,20,08,40,13.00
2018,12,20,08,41,12.90
2018,12,20,08,42,12.80
2018,12,20,08,43,12.60
2018,12,20,08,44,12.50
2018,12,20,08,45,12.50
2018,12,20,08,46,12.40
2018,12,20,08,47,12.40
2018,12,20,08,48,12.40
2018,12,20,08,49,12.40
2018,12,20,08,50,12.40
2018,12,20,08,51,12.50
2018,12,20,08,52,12.60
2018,12,20,08,53,12.60
2018,12,20,08,54,12.60
